This is the latest recevied weather packets stored in our database for station/object SP6PWT-13. If no packets are shown the sender has not sent any weather packets the latest 10 day(s).
| Time | Temp. | Humidity | Pressure | Rain* | Wind** | Luminosity | Snow |
|---|---|---|---|---|---|---|---|
| 1777549236 | 13.33° C | 35% | 1014 hPa | 0 mm | - | 692 W/m² | - |
| 1777548936 | 13.33° C | 34% | 1014 hPa | 0 mm | - | 738 W/m² | - |
| 1777548636 | 13.33° C | 34% | 1013.8 hPa | 0 mm | - | 769 W/m² | - |
| 1777548335 | 12.78° C | 34% | 1014 hPa | 0 mm | - | 774 W/m² | - |
| 1777548035 | 13.89° C | 33% | 1014 hPa | 0 mm | - | 589 W/m² | - |
| 1777547734 | 12.78° C | 34% | 1014.1 hPa | 0 mm | - | 791 W/m² | - |
| 1777547434 | 12.78° C | 34% | 1014.3 hPa | 0 mm | - | 263 W/m² | - |
| 1777547133 | 13.33° C | 34% | 1014.2 hPa | 0 mm | - | 196 W/m² | - |
| 1777546833 | 13.33° C | 34% | 1014.1 hPa | 0 mm | - | 517 W/m² | - |
| 1777546532 | 12.78° C | 35% | 1014.2 hPa | 0 mm | - | 851 W/m² | - |
| 1777546232 | 12.78° C | 34% | 1014.2 hPa | 0 mm | - | 777 W/m² | - |
| 1777545932 | 12.22° C | 35% | 1014.4 hPa | 0 mm | - | 734 W/m² | - |
| 1777545631 | 11.67° C | 36% | 1014.4 hPa | 0 mm | - | 306 W/m² | - |
| 1777545331 | 12.22° C | 35% | 1014.5 hPa | 0 mm | - | 286 W/m² | - |
| 1777545030 | 12.78° C | 34% | 1014.4 hPa | 0 mm | - | 298 W/m² | - |
| 1777544729 | 12.78° C | 35% | 1014.6 hPa | 0 mm | - | 296 W/m² | - |
| 1777544429 | 12.22° C | 35% | 1014.5 hPa | 0 mm | - | 290 W/m² | - |
| 1777544128 | 12.22° C | 35% | 1014.6 hPa | 0 mm | - | 477 W/m² | - |
| 1777543828 | 12.78° C | 34% | 1014.5 hPa | 0 mm | - | 729 W/m² | - |
| 1777543527 | 12.22° C | 35% | 1014.7 hPa | 0 mm | - | 734 W/m² | - |
| 1777543227 | 12.22° C | 34% | 1014.7 hPa | 0 mm | - | 709 W/m² | - |
| 1777542927 | 12.22° C | 33% | 1014.6 hPa | 0 mm | - | 683 W/m² | - |
| 1777542626 | 12.22° C | 34% | 1014.8 hPa | 0 mm | - | 690 W/m² | - |
| 1777542325 | 12.22° C | 34% | 1014.7 hPa | 0 mm | - | 648 W/m² | - |
| 1777542025 | 12.22° C | 33% | 1015 hPa | 0 mm | - | 649 W/m² | - |
* Rain latest hour (hover to see other rain measurements)
** Current wind speed in m/s (hover to see current wind gust speed)